This demonstration page uses our WeatherBlox Daily Observations layout. Learn more.

Left ArrowRight Arrow

Hourly Observations for April 29, 2017

Temp ( °F °C ) Dew Point ( °F °C ) Humidity (%) Winds ( mph kmh ) Pressure ( in mb ) Visibility ( mi km ) Precip ( " mm )
12:59 am 00:59 Clear 77 25 73 22.8 88 88 S 7 11 30.10 1019 7 11 0.00 0.00
1:59 am 01:59 Partly Cloudy with Mist and Fog 76 24.4 72 22.2 88 88 SSW 12 19 30.08 1019 6 10 0.00 0.00
2:24 am 02:24 Mostly Cloudy with Mist and Fog 76 24.4 72 22.2 88 88 SSW 13 20 30.09 1019 6 10 0.00 0.00
2:59 am 02:59 Cloudy 76 24.4 72 22.2 88 88 SSW 12 19 30.09 1019 7 11 0.00 0.00
3:59 am 03:59 Cloudy 76 24.4 71 21.7 85 85 SW 10 17 30.11 1020 7 11 0.00 0.00
4:47 am 04:47 Cloudy 76 24.4 71 21.7 85 85 SW 9 15 30.12 1020 7 11 0.00 0.00
4:59 am 04:59 Cloudy 76 24.4 71 21.7 85 85 SW 10 17 30.12 1020 7 11 0.00 0.00
5:59 am 05:59 Cloudy 76 24.4 70 21.1 82 82 SW 12 19 30.14 1021 7 11 0.00 0.00
6:59 am 06:59 Cloudy with Mist and Fog 75 23.9 71 21.7 88 88 SW 9 15 30.16 1021 6 10 0.00 0.00
7:35 am 07:35 Mostly Cloudy with Mist and Fog 75 23.9 71 21.7 88 88 SW 12 19 30.18 1022 5 8 0.00 0.00
7:59 am 07:59 Mostly Cloudy with Haze 76 24.4 71 21.7 85 85 SW 14 22 30.17 1022 6 10 0.00 0.00
8:59 am 08:59 Mostly Cloudy with Haze 78 25.6 71 21.7 79 79 SW 12 19 30.17 1022 6 10 0.00 0.00
9:59 am 09:59 Mostly Cloudy 80 26.7 71 21.7 74 74 SW 16 26 30.17 1022 7 11 0.00 0.00
10:59 am 10:59 Mostly Cloudy 81 27.2 71 21.7 72 72 W 14 22 30.18 1022 7 11 0.00 0.00
11:59 am 11:59 Mostly Cloudy 83 28.3 72 22.2 70 70 WSW 12 19 30.16 1021 7 11 0.00 0.00
12:59 pm 12:59 Mostly Cloudy 84 28.9 71 21.7 65 65 W 15 24 30.14 1021 7 11 0.00 0.00
1:59 pm 13:59 Cloudy 87 30.6 72 22.2 61 61 WSW 15 24 30.12 1020 7 11 0.00 0.00
2:59 pm 14:59 Mostly Cloudy 88 31.1 71 21.7 57 57 WSW 12 19 30.11 1020 7 11 0.00 0.00
3:59 pm 15:59 Cloudy 88 31.1 70 21.1 55 55 W 14 22 30.10 1019 8 13 0.00 0.00
4:59 pm 16:59 Cloudy 88 31.1 70 21.1 55 55 SW 12 19 30.09 1019 8 13 0.00 0.00
5:59 pm 17:59 Partly Cloudy 87 30.6 70 21.1 57 57 SW 10 17 30.09 1019 8 13 0.00 0.00
6:59 pm 18:59 Mostly Cloudy 85 29.4 70 21.1 61 61 SW 10 17 30.09 1019 7 11 0.00 0.00
7:59 pm 19:59 Mostly Cloudy 84 28.9 70 21.1 63 63 SW 12 19 30.10 1019 8 13 0.00 0.00
8:59 pm 20:59 Mostly Clear 82 27.8 70 21.1 67 67 SW 10 17 30.11 1020 9 14 0.00 0.00
9:59 pm 21:59 Clear 82 27.8 69 20.6 65 65 SW 10 17 30.13 1020 9 14 0.00 0.00
10:59 pm 22:59 Clear 80 26.7 70 21.1 71 71 SSW 10 17 30.13 1020 9 14 0.00 0.00
11:59 pm 23:59 Clear 78 25.6 72 22.2 82 82 SW 8 13 30.13 1020 8 13 0.00 0.00

Powered by AerisWeather